Regional Weather Roundup
Issued by NWS

Home | Current Version | Previous Version | Graphics & Text | Print | Product List | Glossary On
Versions: 1 2 3 4 5 6 7 8 9 10 11 12 13 14 15 16 17 18 19 20 21 22 23 24 25 26 27 28 29 30 31 32 33 34 35 36 37 38 39 40 41 42 43 44 45 46 47 48 49 50
000
ASUS43 KMPX 312110
RWRMN
WEATHER ROUNDUP FOR MINNESOTA
NATIONAL WEATHER SERVICE TWIN CITIES/CHANHASSEN MN
300 PM CST SAT JAN 31 2015


NOTE: "FAIR" INDICATES FEW OR NO CLOUDS BELOW 12,000 FEET WITH NO
SIGNIFICANT WEATHER AND/OR OBSTRUCTIONS TO VISIBILITY. N/A MEANS
CURRENT SKY AND/OR WEATHER CONDITIONS ARE NOT AVAILABLE.

MNZ060>063-068>070-312200-
   Twin Cities Metro

CITY           SKY/WX    TMP DP  RH WIND       PRES   REMARKS
TWIN CITIES    CLOUDY    27  17  66 E9        30.19S WCI  18
ST PAUL        CLOUDY    28  18  66 NE8       30.21S WCI  20
CRYSTAL        CLOUDY    29  18  63 N8        30.18F WCI  21
BLAINE         CLOUDY    30  19  64 NE7       30.18F WCI  23
LAKEVILLE      CLOUDY    27  21  80 N9        30.17F WCI  17
EDEN PRAIRIE   CLOUDY    28  19  69 NE7       30.17F WCI  21
SOUTH ST PAUL  CLOUDY    28  20  70 NE7       30.19S WCI  21
LAKE ELMO      CLOUDY    28  19  69 NE3       30.20S
$$
MNZ001>005-007-008-013>017-022>024-027-028-312200-
   Northwest Minnesota

CITY           SKY/WX    TMP DP  RH WIND       PRES   REMARKS
BEMIDJI        MOSUNNY    7  -3  65 N8        30.30S WCI  -6
HALLOCK        SUNNY     -2 -15  55 N16       30.48S WCI -23
ROSEAU         SUNNY      3  -9  55 N12       30.43R WCI -13
WARROAD        SUNNY      1  -9  60 NE10      30.43R WCI -14
THIEF RVR FALL SUNNY      1  -8  66 N16       30.39S WCI -18
CROOKSTON      SUNNY      5  -8  56 N13G20    30.42F WCI -12
FOSSTON        MOSUNNY    9   0  66 N16       30.33F WCI  -9
DETROIT LAKES  SUNNY     18   0  45 N5        30.26F WCI  11
MOORHEAD       MOSUNNY   12  -2  52 N20G25    30.33F WCI  -6
PARK RAPIDS    SUNNY     17  -7  34 N13       30.24S WCI   4
MAHNOMEN       FAIR      10  -1  58 N17       30.30S WCI  -7
$$
MNZ006-009>011-018-025>026-312200-
   North Central Minnesota

CITY           SKY/WX    TMP DP  RH WIND       PRES   REMARKS
BAUDETTE       SUNNY      0 -10  63 NW13      30.38S WCI -18
FLAG ISLAND    SUNNY     -2 -13  60 N12       30.42S WCI -20
INTL FALLS     SUNNY      5  -7  57 N8        30.35R WCI  -8
WASKISH        SUNNY      7  -2  66 CALM      30.36R
BIG FORK       SUNNY     12  -2  52 N8        30.30S WCI   1
LONGVILLE      SUNNY     16   1  53 N5        30.26S WCI   9
GRAND RAPIDS   SUNNY     16   1  53 N10       30.25S WCI   3
CRANE LAKE     SUNNY      7  -8  51 N5        30.35R WCI  -2
ORR            SUNNY      9  -8  47 CALM      30.28R
COOK           SUNNY     10  -8  44 N6        30.29S WCI   1
WALKER         FAIR      12  -4  49 NE10      30.27S WCI  -2
$$
MNZ012-019>021-037-312200-
   Northeast Minnesota

CITY           SKY/WX    TMP DP  RH WIND       PRES   REMARKS
DULUTH         SUNNY     19  -1  41 N9        30.23R WCI   8
ELY            SUNNY     10  -6  48 N6        30.27R WCI   1
HIBBING        SUNNY     16  -3  43 N12       30.26R WCI   3
EVELETH        SUNNY     16  -4  41 NE10      30.27R WCI   3
DULUTH HARBOR  SUNNY     23   3  42 CALM      30.30R
TWO HARBORS    SUNNY     23   3  42 NE6       30.24R WCI  16
SILVER BAY     SUNNY     19  -2  38 N5        30.24R WCI  13
GRAND MARAIS     N/A     16  -4  41 VRB3      30.32R
G MARAIS ARPRT SUNNY      7  -8  51 N9        30.21R WCI  -7
$$
MNZ029>031-032-039>041-046>048-054>057-064-312200-
   West Central Minnesota

CITY           SKY/WX    TMP DP  RH WIND       PRES   REMARKS
FERGUS FALLS   PTSUNNY   18   1  49 N13       30.27S WCI   4
WHEATON        PTSUNNY   18   9  68 N14G22    30.25S WCI   4
MORRIS         PTSUNNY   28  12  50 NE9       30.19R WCI  20
ALEXANDRIA     CLOUDY    24   4  42 NE13      30.18F WCI  12
ELBOW LAKE     PTSUNNY   22  -1  36 NE14G20   30.20F WCI   9
WADENA         MOSUNNY   19  -2  38 N13       30.21F WCI   7
GLENWOOD       CLOUDY    27   7  43 NE15      30.17F WCI  15
APPLETON       CLOUDY    28  18  64 E10       30.19S WCI  19
BENSON         CLOUDY    28  16  59 E8        30.18S WCI  20
ORTONVILLE     CLOUDY    21  16  79 N13       30.20S WCI   9
MADISON        CLOUDY    28  25  86 NE12      30.18F WCI  18
WILLMAR        PTSUNNY   28  18  64 NE7       30.19S WCI  21
$$
MNZ033>034-036-042>043-049>051-058-059-312200-
   Central Minnesota

CITY           SKY/WX    TMP DP  RH WIND       PRES   REMARKS
ST CLOUD       CLOUDY    28  14  55 NE8       30.18F WCI  20
SAUK CENTRE    MOCLDY    26   6  41 N12       30.18S WCI  16
PAYNESVILLE    CLOUDY    26  14  60 N9        30.18S WCI  17
AITKIN         SUNNY     27   3  36 N7        30.21F WCI  19
PINE RIVER     SUNNY     16   3  57 N14       30.28S WCI   1
BRAINERD       MOSUNNY   24   5  44 N9        30.22F WCI  14
STAPLES        MOSUNNY   19  -6  32 NE10G16   30.22S WCI   8
LONG PRAIRIE   CLOUDY    25   1  36 NE10G16   30.19S WCI  15
LITTLE FALLS   MOSUNNY   27   7  43 N6        30.21S WCI  20
LITCHFIELD     CLOUDY    28  21  74 NE7       30.18S WCI  21
BUFFALO        PTSUNNY   28  18  67 E8        30.20R WCI  20
MAPLE LAKE     PTSUNNY   29  20  67 NE7       30.19S WCI  22
$$
MNZ037-044-045-052-053-312200-
   East Central Minnesota

CITY           SKY/WX    TMP DP  RH WIND       PRES   REMARKS
PRINCETON      MOSUNNY   30  12  47 N9        30.19S WCI  22
MORA           MOSUNNY   28   5  37 NE7       30.22S WCI  21
CAMBRIDGE      MOSUNNY   30  16  55 NE8       30.18S WCI  23
RUSH CITY      FAIR      29  12  49 N9        30.20F WCI  20
MOOSE LAKE     SUNNY     27   7  43 N6        30.21S WCI  20
HINCKLEY       FAIR      28  10  47 N10       30.20F WCI  19
CLOQUET        SUNNY     21   1  42 N7        30.23R WCI  13
MCGREGOR       SUNNY     23   5  46 N10       30.23F WCI  12
$$
MNZ071>073-080-081-089-090-097-098-312200-
   Southwest Minnesota

CITY           SKY/WX    TMP DP  RH WIND       PRES   REMARKS
MONTEVIDEO     CLOUDY    25  21  86 E10       30.19S WCI  15
GRANITE FALLS  CLOUDY    26  22  84 NE13G18   30.18S WCI  15
CANBY          CLOUDY    23  20  90 N10       30.17F WCI  12
MARSHALL       CLOUDY    25  21  86 NE14      30.16S WCI  13
REDWOOD FALLS  CLOUDY    28  22  78 NE9G17    30.16S WCI  19
OLIVIA         CLOUDY    27  23  86 NE8       30.17S WCI  18
PIPESTONE      CLOUDY    25  23  93 E9        30.07F FOG     WCI  15
WINDOM         CLOUDY    27  27 100 NE15      30.10F FOG     WCI  15
WORTHINGTON    CLOUDY    25  23  93 NE15      30.08F WCI  12
JACKSON        CLOUDY    28  27  93 NE15      30.09F FOG     WCI  17
TRACY          CLOUDY    26  26  97 NE10      30.13F FOG     WCI  17
SLAYTON        FOG       25  24  97 NE7       30.10F VSB 3/4 WCI  17
$$
MNZ065>067-074>077-082>085-091>093-312200-
   South Central Minnesota

CITY           SKY/WX    TMP DP  RH WIND       PRES   REMARKS
MANKATO        CLOUDY    28  25  86 NE13      30.15R WCI  18
NEW ULM        CLOUDY    27  25  93 NE12      30.16R FOG     WCI  16
ST JAMES       CLOUDY    28  27  93 NE8       30.14F FOG     WCI  20
FAIRMONT       CLOUDY    28  27  93 NE13      30.10F WCI  18
GLENCOE        CLOUDY    29  24  82 N8        30.17S WCI  21
FARIBAULT      CLOUDY    28  25  86 NE8       30.16S WCI  20
OWATONNA       CLOUDY    28  25  86 NE9       30.15R WCI  20
WASECA         CLOUDY    30  27  86 NE13      30.16R FOG     WCI  20
ALBERT LEA     CLOUDY    30  28  93 NE9       30.11F FOG     WCI  22
$$
MNZ078>079-086>088-094>096-312200-
   Southeast Minnesota

CITY           SKY/WX    TMP DP  RH WIND       PRES   REMARKS
ROCHESTER      CLOUDY    29  23  78 NE12      30.13S WCI  19
RED WING       CLOUDY    30  21  69 NE6       30.18S WCI  24
STANTON        CLOUDY    30  23  75 NE12      30.16S WCI  21
DODGE CENTER   CLOUDY    28  27  93 NE10      30.13S WCI  19
WINONA         CLOUDY    32  25  74 E5        30.19S WCI  27
AUSTIN         CLOUDY    30  27  86 E8        30.12S WCI  23
PRESTON        CLOUDY    29  25  84 NE6       30.14R WCI  23
$$
ABBREVIATIONS USED IN REMARKS
   TC - TEMPERATURES IN CELSIUS
  WCI - WIND CHILL INDEX
   HX - HEAT INDEX
  VSB - VISIBILITY
$$



USA.gov is the U.S. government's official web portal to all federal, state and local government web resources and services.